Location: Altmatt
(47.1333°N, 8.7000°E)
Time: 00:32:53
(UTC+00:00)

Cosmos 1943 Rocket - Pass Details

Date: 13 July 2020
Orbit: 811 x 845 km, 71.0° (Epoch: 10 August)

Event Time Altitude Azimuth Distance (km) Brightness Sun altitude
Rises 23:48:03 0° 315° (NW) 3,410 5.9 -21.1°
Reaches altitude 10° 23:52:20 10° 284° (WNW) 2,463 4.7 -21.1°
Maximum altitude 23:54:09 12° 265° (W) 2,346 4.4 -21.0°
Enters shadow 23:55:24 11° 252° (WSW) 2,397 4.3 -21.0°
